RH
5 4 3 3 5 10 12 10 8 7 6 3 3 3 9 24 39 47 48 58 63 50 48 46 42 46 44 40 37 46 57 55 68 77 62 61 65 61 62 66 54 34 37 41 33 31 29 27 26 23 25 28 28 19 10 11 12 7 5 5 4 5 6 7 7 8 10 11 10 10 11 11 12 14 15 19 24 25 24 23 22 17 17 19 21 22
6 5 4 3 4 7 11 14 11 9 7 4 4 2 4 8 21 40 41 54 76 59 40 46 43 42 50 47 40 42 48 54 65 64 62 68 64 56 57 63 58 41 40 45 37 34 33 28 26 23 22 24 28 24 12 11 13 8 5 5 4 4 5 7 7 8 8 8 7 7 7 8 11 13 15 19 22 22 23 22 20 15 14 17 18 19
5 5 5 5 4 4 7 12 13 11 9 6 7 4 4 3 6 24 28 38 69 60 34 41 44 43 48 51 55 49 43 54 61 55 66 73 59 55 60 63 62 47 43 50 45 43 41 31 26 24 21 21 25 25 16 11 12 10 6 5 4 4 4 6 6 6 5 4 4 4 5 7 10 13 15 17 19 20 22 21 18 14 12 15 16 17
5 5 6 6 5 4 4 7 12 14 12 7 8 6 4 4 2 8 11 17 42 45 30 35 42 44 46 50 55 47 47 68 63 41 50 64 59 55 55 60 66 54 48 53 51 50 49 39 29 22 20 19 21 25 20 11 11 10 7 5 5 4 4 6 6 5 5 4 4 4 5 7 9 12 13 14 17 20 21 20 16 13 11 13 14 14
5 5 6 6 6 6 4 4 7 13 16 12 8 8 6 6 3 2 9 12 18 22 20 27 38 44 46 47 49 47 54 69 60 44 50 60 59 54 51 61 70 61 53 54 54 56 56 46 33 23 20 17 16 24 24 14 13 12 8 6 5 4 4 5 6 5 5 4 4 4 5 6 8 10 12 12 16 19 19 18 15 11 10 11 12 11
4 4 5 6 5 6 6 4 5 9 16 17 12 10 8 7 4 1 8 11 7 8 11 16 27 37 41 42 47 51 53 55 53 53 56 56 52 51 55 64 70 64 58 58 57 59 60 50 37 26 21 17 12 18 25 18 14 14 10 6 5 5 4 4 6 5 5 5 4 5 5 6 7 9 10 11 14 17 16 15 13 10 9 10 10 10
5 4 4 5 5 6 6 5 4 5 12 19 18 15 11 8 7 3 4 5 2 3 4 6 12 21 29 32 37 43 45 45 44 38 42 51 52 50 54 61 67 65 60 60 57 60 66 58 46 32 22 19 13 11 20 21 15 13 11 8 5 5 4 4 5 5 5 5 4 5 5 5 7 8 9 11 14 15 14 14 11 8 8 9 9 9
6 5 4 4 5 5 6 6 5 3 7 15 19 19 14 10 8 7 3 2 3 3 3 5 5 7 14 20 24 29 33 38 41 36 36 48 54 55 58 59 63 67 65 64 62 62 69 64 52 38 24 21 16 8 14 20 16 12 11 10 6 5 4 4 5 5 6 5 5 5 5 5 6 7 8 11 13 14 13 11 9 7 7 8 9 8
5 5 5 4 5 5 5 5 6 6 4 8 16 21 20 14 10 9 7 4 4 2 2 5 7 6 6 8 13 18 24 27 32 37 37 43 50 55 56 53 61 71 67 65 66 64 66 63 54 43 28 20 17 9 8 15 16 11 11 11 7 6 5 4 4 5 6 5 5 5 5 5 6 6 8 10 13 13 12 9 7 7 6 7 8 8
5 5 5 4 4 4 6 6 6 8 6 4 9 16 20 18 12 10 8 6 5 4 3 2 5 11 8 5 6 9 17 20 20 25 31 36 41 47 52 54 63 71 64 64 68 63 63 62 54 48 36 21 16 11 5 9 13 10 10 12 9 7 5 4 4 5 6 5 4 5 5 5 6 6 7 9 12 13 11 9 7 6 6 6 7 8
5 5 5 5 5 4 4 6 6 8 9 6 6 10 16 18 17 15 12 9 7 4 3 1 2 10 11 4 3 5 7 11 16 19 20 25 33 43 52 56 60 64 65 68 67 63 64 60 53 50 44 30 18 12 5 4 9 10 9 11 10 8 6 5 4 4 5 5 4 4 4 5 5 5 7 8 10 12 10 8 7 5 5 5 5 7
5 5 4 4 4 5 5 5 6 8 9 7 6 6 10 17 21 21 18 14 10 5 4 3 1 4 7 2 2 5 3 5 13 19 20 21 25 37 48 55 57 55 63 69 63 65 69 58 51 52 49 39 25 16 9 3 6 10 9 9 10 8 6 5 4 4 5 5 5 4 4 5 5 5 6 7 9 10 10 8 7 6 5 5 5 6
4 4 6 7 5 4 5 5 5 6 7 8 8 7 7 12 19 24 26 20 10 5 3 5 4 1 3 3 1 3 3 4 4 10 25 27 22 30 41 51 56 51 61 72 64 68 70 54 48 53 50 44 33 23 16 6 3 8 9 9 9 8 7 5 5 4 4 5 5 4 4 4 5 5 5 6 8 9 9 8 8 7 7 6 6 6
10 6 1 2 6 6 5 6 6 6 6 6 8 10 7 8 15 20 26 24 14 7 5 4 6 4 2 2 3 2 2 5 3 3 17 23 20 27 34 44 55 52 57 69 66 66 68 54 49 53 50 45 38 28 20 11 3 5 8 9 8 8 7 6 5 4 4 5 5 4 3 4 4 5 5 5 7 9 9 9 8 7 7 6 6 6
22 32 28 13 5 7 5 5 6 5 7 8 10 13 9 8 14 19 28 29 16 9 10 7 4 4 4 1 2 4 1 1 3 3 7 11 15 23 28 35 49 53 52 58 60 62 66 62 55 54 49 44 41 32 22 15 6 2 7 9 9 9 8 7 5 4 5 5 4 4 3 4 4 4 5 5 6 7 9 9 8 7 7 6 6 5
12 37 62 43 11 7 7 5 7 7 7 8 8 14 15 9 7 18 40 48 35 24 22 19 10 3 5 5 0 2 3 2 3 2 3 6 10 17 23 26 39 54 57 56 56 55 64 70 57 50 49 44 42 35 25 20 12 3 4 8 9 9 9 8 6 4 5 5 5 4 3 3 5 5 5 5 5 6 8 8 8 7 6 6 6 5
1 14 47 44 16 9 7 3 5 5 7 14 14 10 12 16 9 6 23 42 53 59 56 49 35 11 2 6 4 2 1 1 3 2 1 4 8 12 16 19 29 50 57 53 52 52 63 72 57 45 49 47 44 40 32 28 20 9 4 5 9 10 9 9 7 4 4 5 5 4 3 3 4 5 5 5 5 5 6 7 7 7 6 6 6 5
6 7 21 21 10 9 13 19 23 10 3 23 43 30 9 13 17 8 14 34 53 62 64 68 64 41 19 7 2 3 4 2 2 3 1 2 7 10 12 15 22 35 46 46 46 50 64 71 57 47 50 50 49 47 41 37 30 18 7 4 6 8 8 9 8 6 4 4 6 5 4 3 4 5 6 5 6 5 5 6 6 7 6 6 6 5
7 6 9 7 5 6 9 24 36 22 2 11 46 64 44 27 22 12 15 36 52 53 55 69 74 61 48 32 13 2 2 2 1 2 3 2 4 8 10 16 21 24 33 38 41 49 61 62 51 46 50 52 53 51 45 41 35 25 14 7 5 5 7 9 8 7 5 4 6 5 4 3 3 5 6 5 6 5 5 6 5 6 7 6 6 6
8 7 7 5 6 7 6 12 18 17 12 4 18 62 87 75 53 31 11 15 42 60 66 77 69 46 43 52 42 19 4 3 3 1 3 2 3 7 9 13 19 20 23 30 37 46 57 62 59 54 53 58 61 57 49 44 39 33 23 13 7 5 5 7 7 6 6 4 5 6 5 4 3 4 6 5 6 5 5 5 5 6 6 6 6 6
10 9 9 6 7 7 7 12 11 11 21 16 7 34 83 101 88 69 42 12 19 47 67 80 72 44 35 43 37 20 5 2 3 2 3 3 1 4 7 9 13 17 20 25 30 37 52 67 68 60 57 62 69 66 54 46 43 39 31 20 13 8 4 5 7 6 5 5 5 5 5 4 4 4 5 6 5 5 5 5 5 5 5 6 6 6
15 13 10 8 10 7 5 15 25 26 32 45 42 33 53 89 94 87 75 39 13 22 41 67 80 65 57 61 55 40 20 6 4 4 2 3 3 3 5 7 8 12 18 23 26 31 46 62 64 62 63 62 67 69 59 52 49 44 37 28 20 15 9 5 5 6 6 5 5 5 5 5 4 4 5 6 5 5 5 5 5 5 5 5 5 6
17 15 11 9 9 6 11 33 53 51 48 72 93 74 61 83 92 84 84 71 48 29 21 47 80 76 65 74 84 77 46 13 3 5 3 2 2 3 4 5 6 9 13 19 24 26 38 57 66 72 75 66 66 74 69 61 57 51 46 39 27 21 17 9 5 5 6 6 5 5 6 5 4 4 5 5 5 5 5 5 5 5 5 5 5 6
22 17 16 14 12 7 10 30 50 54 53 61 79 86 82 87 94 94 92 88 81 60 34 42 72 79 70 70 80 85 64 30 11 5 4 4 2 2 5 3 5 8 10 14 20 23 30 46 61 72 77 69 66 75 75 67 62 58 53 47 37 28 23 16 10 6 5 7 6 5 6 6 5 4 5 5 5 5 5 5 5 5 5 5 5 5
26 23 21 15 15 13 8 12 18 29 44 37 32 60 77 69 78 99 101 94 93 85 71 67 67 70 76 76 79 85 70 43 24 8 3 5 2 2 4 3 4 7 9 11 15 22 29 37 52 68 76 73 69 74 77 72 66 61 55 52 48 38 28 23 17 9 6 6 6 6 5 6 7 5 4 6 5 5 6 5 5 5 5 5 5 5
31 30 30 22 18 15 12 19 16 17 39 39 27 53 74 60 63 87 98 100 97 89 84 83 72 66 73 78 84 90 66 34 21 12 5 5 3 5 6 3 4 5 7 12 12 19 32 38 45 59 69 75 78 76 77 77 71 64 59 59 56 47 36 28 23 16 10 6 6 6 5 5 7 6 4 5 6 6 6 6 5 5 5 5 5 5
42 36 33 29 26 17 16 31 29 18 30 35 25 36 56 67 77 85 94 100 95 87 78 76 81 86 84 78 84 94 73 38 26 20 12 8 4 5 6 3 4 5 5 12 15 22 39 41 36 43 58 73 82 78 76 79 76 68 64 63 60 54 44 35 27 21 15 9 6 6 6 5 6 7 5 5 6 6 6 6 6 6 5 5 5 5
52 46 39 33 31 24 21 30 30 22 24 24 24 29 39 66 86 79 79 92 99 96 80 68 78 88 88 85 87 91 74 45 36 28 13 9 7 3 5 3 2 5 8 11 13 21 34 34 26 29 44 60 69 71 72 76 75 71 69 69 66 60 53 43 34 26 19 14 9 6 6 6 5 6 6 5 6 6 5 6 6 6 6 5 5 5
53 51 46 40 36 31 25 27 31 34 33 25 26 31 30 48 70 65 63 82 93 84 72 74 79 75 79 88 85 84 74 53 46 36 14 8 10 5 8 11 6 6 10 12 13 20 29 33 31 35 46 57 60 62 67 69 69 68 66 67 65 59 55 49 41 33 23 16 12 8 7 6 5 5 5 5 5 5 5 5 5 6 6 6 5 5
63 55 50 45 41 36 28 27 32 38 44 38 28 29 31 36 49 55 62 79 79 63 60 75 77 62 63 74 75 79 76 57 51 50 28 12 12 8 7 14 14 8 9 13 15 19 27 35 40 47 59 67 61 56 60 61 61 64 63 64 64 59 56 51 46 41 31 19 14 10 8 7 6 5 5 5 5 5 5 5 4 5 5 5 6 5
77 67 60 52 46 43 30 24 27 27 36 43 32 25 29 33 39 47 65 79 70 58 63 68 65 58 54 60 73 79 69 56 56 59 42 17 12 12 6 10 18 14 12 18 17 16 23 29 37 50 62 65 57 50 55 56 57 64 68 69 67 64 61 55 49 47 40 27 16 10 8 8 7 6 5 4 5 5 5 5 4 4 5 4 5 5
77 78 80 67 54 51 38 25 24 20 26 41 42 30 24 33 44 44 55 70 58 48 61 61 58 63 57 58 76 76 60 59 59 50 38 22 13 12 7 8 16 14 14 21 19 19 27 35 45 58 65 67 62 52 50 53 55 61 67 69 70 68 64 56 50 50 48 38 23 12 8 8 7 7 6 4 5 4 4 5 4 4 4 4 4 5
75 81 91 85 69 59 47 33 25 24 31 38 44 43 31 33 48 42 37 57 60 48 54 65 71 71 59 60 78 74 60 64 64 49 38 29 20 15 8 5 9 8 10 17 18 21 32 41 51 62 68 73 69 57 50 52 54 59 64 70 75 76 69 61 55 55 54 47 32 18 9 7 7 8 7 5 4 4 4 5 4 4 4 3 3 4
78 85 91 95 88 71 57 46 29 25 37 34 35 55 53 36 42 46 36 44 62 60 50 62 81 76 60 62 67 57 49 57 63 57 42 30 26 22 15 10 7 5 7 11 17 29 43 51 57 64 71 72 65 58 58 56 54 60 66 71 75 77 75 71 67 63 57 51 41 27 14 8 7 8 8 6 4 3 4 4 4 4 3 3 4 4
63 79 90 98 95 76 66 60 42 32 39 35 35 59 70 49 35 39 38 35 51 66 57 55 67 58 47 60 59 44 41 44 45 45 39 35 32 21 12 10 6 3 6 10 17 33 49 57 61 65 68 66 60 58 59 56 54 57 61 64 66 68 72 74 72 68 60 53 47 38 23 11 8 9 9 8 5 4 3 4 4 4 3 3 3 3
40 55 74 91 96 86 75 65 56 51 44 36 39 49 60 66 55 47 48 39 38 58 66 64 66 54 45 56 57 46 46 46 40 36 35 38 37 22 11 8 5 4 8 10 18 33 47 55 61 64 62 59 58 55 49 51 58 60 58 59 63 65 65 66 69 70 64 56 51 47 36 21 10 8 9 9 7 5 4 3 3 4 3 3 4 4
32 38 51 70 83 87 81 69 65 65 47 35 45 44 38 56 70 65 64 50 32 43 58 58 61 63 60 57 48 41 46 51 51 46 35 29 27 20 11 6 4 7 9 11 17 29 40 49 55 59 56 51 54 55 50 54 64 66 60 57 61 66 64 60 64 68 66 60 55 52 48 36 20 10 8 9 9 7 6 5 4 3 3 3 4 4
28 30 36 53 70 83 91 86 74 62 44 37 51 48 30 35 50 55 60 58 42 37 44 47 51 60 67 64 48 34 36 46 53 51 39 27 19 14 9 5 6 8 9 13 19 23 29 37 43 48 47 41 45 54 59 62 65 68 64 53 52 63 64 58 59 65 67 65 59 56 54 46 33 21 11 8 8 8 7 6 5 5 5 4 4 5
33 30 32 45 67 87 98 97 83 66 53 50 54 49 36 34 37 37 43 55 55 45 40 47 53 54 60 68 58 36 32 42 44 41 38 31 20 13 10 6 6 7 8 13 20 24 27 29 34 37 36 33 37 45 54 61 64 70 70 56 48 58 64 57 56 64 70 68 62 59 56 48 40 33 23 13 11 9 7 7 6 5 6 6 6 6
44 29 26 38 63 86 92 89 87 80 65 57 57 53 46 44 52 59 60 58 57 53 43 42 51 56 57 62 56 42 39 42 33 29 36 35 22 14 11 7 6 8 9 11 17 24 26 25 26 27 25 26 31 37 44 52 56 65 71 61 50 56 62 58 59 68 73 70 65 62 57 48 40 39 34 24 18 15 11 9 7 6 7 7 7 8
61 39 30 38 58 79 87 83 82 79 67 56 56 58 55 51 61 83 94 82 69 67 56 38 37 48 55 58 53 43 41 37 24 24 38 38 25 17 13 9 7 6 8 10 13 16 19 19 17 18 20 22 24 27 33 38 40 48 60 61 56 58 62 61 65 71 73 72 70 67 63 53 42 39 39 32 24 19 14 10 8 7 7 8 8 8
71 54 39 40 55 75 90 88 79 73 67 57 51 52 55 55 59 76 95 98 91 88 79 55 34 30 41 55 54 40 32 27 19 24 39 41 29 20 15 11 9 7 6 9 11 11 13 12 10 12 17 19 18 21 25 27 28 33 44 56 60 60 62 64 68 72 75 78 79 76 69 57 44 40 42 36 28 20 13 8 8 7 7 8 9 10
58 43 32 37 55 77 93 93 85 79 72 60 51 51 52 51 54 66 84 98 100 95 88 75 54 36 34 44 47 37 26 22 19 23 36 41 31 21 16 12 9 8 6 6 9 12 11 10 9 10 13 14 15 17 20 21 22 24 35 53 64 63 62 67 73 78 83 87 87 82 69 53 43 43 45 40 31 21 11 6 6 6 7 8 8 9
61 44 37 41 53 68 80 84 82 76 67 55 48 51 51 46 48 59 72 83 91 92 90 86 74 56 41 36 37 33 25 23 24 26 34 41 33 21 17 14 11 9 8 7 9 11 9 8 9 10 12 14 13 13 15 17 19 22 32 48 59 61 63 71 81 87 89 91 91 81 63 49 44 49 51 43 32 21 10 6 6 6 6 7 7 6
73 53 39 40 51 63 73 78 73 59 50 46 44 45 49 48 50 60 68 73 77 80 84 84 78 67 51 35 30 29 24 25 30 31 35 39 33 21 17 16 14 13 11 10 9 8 8 9 10 12 14 14 11 9 10 12 15 20 27 35 46 56 63 71 83 91 90 92 90 73 55 50 53 57 54 44 30 19 10 6 5 6 7 6 5 5
85 63 46 45 53 60 65 70 67 51 40 40 40 37 39 43 47 58 73 81 77 73 76 76 74 72 61 41 29 27 24 22 26 33 39 39 30 21 18 16 17 19 19 17 12 8 7 8 9 10 9 9 9 8 6 7 10 14 20 23 32 49 61 66 76 86 89 90 83 64 53 58 63 60 52 41 28 17 10 6 5 5 6 5 5 4
97 88 82 79 79 79 71 57 48 42 35 34 34 31 31 37 42 54 78 93 84 72 72 72 68 70 66 48 31 25 24 20 19 27 39 41 30 22 18 17 21 28 31 27 18 11 12 17 18 16 11 10 12 10 6 5 6 10 16 18 23 42 59 63 67 78 87 85 69 55 58 67 66 57 49 39 27 16 8 5 5 5 4 4 4 3
99 98 100 98 98 101 87 60 46 45 38 28 26 26 26 32 41 55 81 100 92 76 77 75 64 61 63 54 38 27 24 20 15 20 36 42 31 21 20 21 27 37 40 35 26 21 26 34 35 30 23 18 18 17 14 13 10 8 11 14 20 39 57 62 66 77 82 73 57 53 65 70 63 54 46 34 23 14 8 5 5 5 5 5 4 4
99 99 100 99 97 97 90 75 68 68 54 31 21 20 20 27 43 60 80 95 91 82 84 80 62 52 54 53 44 34 27 21 14 18 35 42 30 21 22 26 33 43 45 41 34 32 37 43 41 35 29 23 21 23 26 28 25 19 16 14 23 42 56 62 69 75 69 57 51 59 70 70 61 54 45 32 22 15 8 6 5 5 6 6 5 5
100 100 100 100 98 95 91 84 77 74 66 50 39 35 28 25 40 66 85 90 87 86 90 83 64 52 52 52 46 39 33 25 15 18 35 42 32 22 24 29 38 46 47 44 41 38 40 44 42 38 33 25 18 18 21 26 28 26 23 23 31 47 58 63 69 69 59 52 57 69 76 74 67 57 45 35 26 16 8 7 7 6 7 8 8 13
100 100 100 100 100 99 95 89 82 77 73 66 61 61 53 37 38 63 85 88 86 91 97 90 70 56 55 54 47 40 36 27 16 19 36 43 33 24 25 30 38 45 49 48 45 41 42 45 44 41 38 29 19 14 13 16 21 23 24 28 36 47 58 63 64 65 63 63 71 79 81 78 74 64 51 40 30 20 12 9 9 10 11 11 15 28
Wind_Speed
31 33 35 33 30 27 27 28 28 30 34 34 32 33 35 35 34 34 33 28 28 32 34 32 30 30 32 29 27 27 25 25 25 20 15 16 16 15 14 15 18 19 17 16 14 13 13 12 13 13 15 17 17 16 16 16 16 16 15 16 17 19 19 18 18 17 16 16 15 15 15 14 14 13 13 13 12 11 10 9 9 9 10 11 12 12
33 33 32 30 30 31 31 31 31 33 36 34 31 32 34 37 36 35 38 31 26 31 33 33 33 32 31 30 29 29 28 27 26 19 16 18 18 16 15 16 18 19 18 16 14 12 11 10 11 12 14 17 18 17 17 18 18 18 17 17 18 19 19 19 18 18 17 17 16 16 16 15 15 14 14 13 11 11 10 10 10 10 11 12 13 13
36 33 29 28 31 34 35 34 35 35 36 35 33 32 33 36 37 38 42 38 33 33 33 33 34 32 31 32 30 29 28 27 25 21 19 21 20 17 17 17 19 20 19 17 16 14 12 12 12 12 13 15 19 19 18 19 20 20 19 18 19 20 20 19 19 19 19 18 17 16 15 15 15 14 14 13 11 11 11 11 11 11 11 12 13 14
37 34 30 30 32 35 37 38 38 36 36 37 35 33 32 34 38 41 42 40 39 40 38 35 34 33 32 34 33 30 28 26 24 22 23 24 22 19 18 19 20 20 19 19 18 16 14 13 13 13 13 15 18 19 19 20 21 21 21 20 20 22 22 20 20 20 19 18 16 15 14 14 14 14 13 13 12 12 11 11 11 11 12 13 13 14
37 36 34 35 35 35 38 41 40 37 36 37 35 34 33 34 38 40 39 39 42 45 44 39 37 38 37 35 34 32 29 27 25 24 25 27 25 22 21 22 22 20 19 20 19 17 16 15 14 14 15 16 18 20 21 21 21 22 23 22 22 23 23 22 21 21 19 18 16 14 14 13 13 13 14 13 13 12 12 11 11 12 13 13 13 14
38 38 39 40 39 37 39 41 41 40 38 37 36 35 34 35 38 40 41 43 46 48 46 42 41 43 41 38 35 33 30 29 29 27 26 28 26 24 24 25 23 20 19 21 21 19 17 16 15 15 15 16 19 22 23 23 22 23 24 25 24 24 24 24 23 21 19 18 16 15 14 14 15 15 15 15 14 13 12 11 11 12 13 13 13 13
39 39 42 43 42 40 40 40 41 41 40 40 39 37 37 38 39 41 43 45 48 48 45 43 44 43 42 41 39 36 33 31 32 31 28 28 28 26 26 27 23 20 21 23 23 19 17 16 14 13 13 15 18 23 25 24 24 24 25 26 25 25 25 25 24 21 19 18 16 16 16 16 17 17 17 16 14 13 12 11 11 12 13 14 14 13
43 41 43 45 44 43 42 40 40 41 42 43 42 40 39 40 41 42 42 44 47 48 46 44 46 46 45 44 41 40 38 35 34 33 29 30 30 28 28 27 25 24 23 24 23 20 16 14 13 12 13 15 18 22 25 25 25 25 25 26 26 26 26 26 24 22 20 19 18 17 17 18 18 18 17 16 15 14 13 12 11 12 12 13 14 13
47 45 45 46 47 46 44 42 40 41 45 46 44 42 42 43 44 43 41 42 45 48 48 47 46 47 47 46 44 42 42 41 39 35 31 32 32 30 28 27 27 27 25 24 22 19 15 13 13 15 15 16 18 20 24 27 27 27 26 27 27 27 26 26 25 23 22 20 20 19 18 19 19 19 17 16 16 15 14 12 11 12 12 13 13 13
50 49 47 49 50 48 45 44 43 43 47 47 46 47 47 46 44 43 42 42 44 48 50 50 48 46 48 49 48 46 44 42 42 39 34 34 34 32 30 29 29 27 24 24 23 19 17 16 16 18 17 16 17 18 22 27 28 28 28 27 28 28 27 26 25 24 23 22 21 20 19 19 20 19 18 17 17 17 15 14 13 13 13 13 13 13
50 52 52 51 52 51 48 48 47 48 49 48 48 50 49 46 43 43 44 43 46 52 51 50 49 47 50 51 49 47 44 41 41 40 38 36 34 34 33 31 29 27 24 24 23 21 20 20 19 18 18 16 15 17 20 25 28 29 29 28 28 28 28 27 26 25 24 23 21 21 20 21 20 19 19 19 19 18 17 16 15 14 14 14 13 13
46 51 54 52 53 54 52 51 51 52 53 50 48 51 51 48 45 45 46 46 51 55 51 49 49 49 54 53 48 45 43 42 42 38 37 37 36 37 35 31 29 28 27 28 26 24 24 23 19 17 17 16 14 14 16 20 26 28 29 29 29 29 28 27 27 26 25 24 23 22 22 22 21 20 19 20 20 20 19 18 16 15 15 14 14 14
45 49 52 52 54 56 54 54 54 54 55 51 48 50 52 51 49 48 48 49 53 55 52 49 48 51 56 52 48 47 43 45 45 38 35 37 37 39 36 32 32 32 31 31 28 27 26 22 18 18 17 16 14 12 14 17 22 27 29 29 29 28 28 28 27 27 26 25 24 24 23 22 21 21 20 21 21 21 21 19 18 17 15 15 14 13
41 45 50 52 55 57 57 56 55 54 55 53 51 52 54 53 52 52 51 51 52 53 52 50 49 52 55 51 49 48 46 46 44 41 41 39 36 38 38 34 34 35 34 32 29 28 26 21 19 20 19 16 14 13 14 16 19 24 28 29 29 29 29 28 28 27 27 26 26 26 25 23 22 21 21 22 22 22 22 21 19 18 17 16 14 13
31 29 35 44 50 55 57 56 55 54 54 55 54 53 55 55 53 51 50 50 51 51 51 52 54 54 54 51 49 48 49 47 43 43 46 44 41 40 39 36 35 36 35 32 30 28 25 23 22 22 20 17 14 14 14 15 17 21 26 29 29 28 28 28 28 28 28 28 28 27 26 24 23 22 22 22 22 23 22 22 21 20 18 17 15 14
33 25 23 35 46 53 57 57 56 55 53 55 57 55 55 56 55 51 44 41 44 47 48 50 55 56 53 52 51 49 49 45 44 48 48 44 44 43 41 40 37 36 36 33 30 27 26 27 26 22 20 17 15 15 14 13 14 18 23 28 29 29 29 29 29 28 29 29 29 29 27 26 24 23 22 22 22 22 22 22 22 21 20 18 16 14
39 34 29 37 46 51 56 58 58 57 53 51 55 59 57 55 55 55 50 43 38 38 41 41 46 54 55 54 53 52 49 45 46 50 46 40 42 45 44 42 38 36 36 33 29 27 29 30 28 23 20 18 16 16 14 13 13 15 20 26 29 30 30 29 30 30 30 30 30 30 28 27 25 24 23 23 23 23 23 23 22 22 21 19 17 15
40 39 37 43 47 48 51 50 50 55 57 49 44 49 55 56 55 56 54 50 43 40 39 34 35 45 52 55 57 53 48 45 44 45 43 39 42 46 45 42 40 39 38 36 31 29 32 32 29 24 22 19 17 17 16 14 14 15 17 23 28 30 30 30 30 31 32 32 31 31 29 27 26 24 24 24 24 24 24 24 23 22 21 19 18 17
40 39 40 44 47 47 49 46 43 50 59 56 41 32 40 52 56 57 57 52 48 46 41 33 31 38 43 48 54 56 51 46 43 41 40 41 43 46 45 43 42 42 42 39 35 32 34 34 30 26 23 20 19 19 18 17 15 14 15 19 24 29 31 32 33 33 33 33 33 32 31 29 27 26 26 25 25 25 24 24 23 23 22 21 20 19
39 38 39 42 46 47 48 48 47 50 54 57 52 36 29 36 43 51 59 58 51 44 36 30 34 43 45 40 40 49 53 48 42 39 38 40 43 44 46 45 44 44 43 41 37 33 34 34 31 28 25 22 20 21 20 18 16 15 15 16 21 27 31 33 34 34 34 35 34 33 32 30 28 27 27 27 26 25 25 24 24 23 23 22 21 20
42 40 39 40 44 48 50 47 48 50 49 51 56 52 38 29 30 37 49 59 58 49 36 27 30 39 43 42 44 50 55 50 42 37 36 38 41 43 46 46 46 46 43 41 39 34 33 35 34 30 28 25 23 23 23 20 18 16 16 16 18 22 28 31 32 33 35 36 36 35 34 32 30 29 28 28 28 27 26 25 25 24 24 23 22 21
46 44 41 40 42 47 51 47 43 46 43 39 43 52 50 38 31 32 38 50 60 59 49 35 24 23 24 27 34 43 51 53 45 36 34 36 39 42 47 47 46 46 43 41 40 36 34 34 34 32 30 28 26 25 25 22 20 19 16 16 16 17 22 28 31 32 34 35 36 36 35 33 32 31 30 30 29 28 27 26 25 25 24 23 22 22
49 47 44 42 41 44 48 44 39 40 40 37 34 41 49 42 34 33 33 37 46 54 58 49 30 20 23 24 20 22 36 51 49 37 33 36 39 42 46 48 46 45 45 42 41 38 35 34 33 34 35 32 28 27 27 25 22 20 18 17 17 16 18 23 28 31 33 35 36 36 36 35 33 32 31 30 29 29 28 27 26 26 25 24 23 23
50 48 47 44 41 42 46 47 45 43 44 47 45 41 44 42 35 32 30 28 33 40 49 52 39 25 25 32 26 16 23 40 46 40 34 36 39 42 46 47 45 44 45 43 41 40 37 35 36 38 38 36 32 29 29 28 25 23 22 20 19 17 18 20 25 30 33 34 35 37 37 36 34 33 32 31 30 29 28 28 27 27 26 26 25 25
50 50 50 49 45 41 42 48 53 52 47 49 51 45 46 49 41 34 29 27 31 34 36 41 41 33 28 32 29 21 23 32 38 39 36 35 37 40 43 45 44 44 44 42 41 40 38 37 38 39 38 36 34 32 31 30 28 26 25 23 21 20 20 20 22 26 30 34 35 36 37 37 35 34 33 31 31 30 29 29 28 28 28 27 27 26
52 53 52 51 50 46 42 44 51 55 49 46 48 46 46 52 48 40 34 32 34 39 40 36 34 35 35 33 29 26 30 31 30 32 34 36 37 39 43 46 44 43 42 41 40 39 38 39 39 38 37 37 35 34 33 32 31 30 28 26 24 23 22 21 21 22 27 32 35 36 37 37 36 35 33 32 32 31 31 30 29 29 29 28 28 28
55 56 54 52 52 49 45 44 49 55 54 51 51 49 47 48 46 43 41 39 37 39 46 45 34 30 32 31 30 30 31 29 26 28 36 40 41 42 45 48 47 45 44 43 42 40 39 42 42 39 38 38 37 37 35 33 33 32 30 28 27 26 24 22 21 21 24 29 33 35 36 37 37 36 34 34 33 33 32 31 29 29 29 29 28 28
55 57 55 53 53 51 49 46 48 53 58 57 54 53 55 53 50 50 49 47 42 40 46 50 43 36 33 30 31 31 34 36 33 34 40 41 40 41 43 46 46 44 42 44 44 43 43 44 44 41 40 39 39 39 36 35 35 34 32 31 30 29 26 23 22 21 23 27 31 33 35 36 37 37 36 36 35 34 33 31 30 29 29 29 28 28
52 56 56 55 54 54 52 48 47 51 57 59 56 56 61 61 59 59 56 53 51 47 49 50 47 42 39 36 34 30 32 39 39 38 42 42 40 40 41 42 44 43 42 44 46 45 44 44 43 42 41 41 40 40 38 37 37 36 35 33 32 31 28 25 23 22 22 25 28 31 34 35 36 37 38 37 36 36 34 32 31 30 29 28 28 28
45 50 53 55 56 57 56 52 50 52 55 57 57 57 59 60 63 65 59 54 57 57 53 51 50 48 46 42 39 34 33 37 38 38 42 44 42 41 43 43 43 46 46 46 49 50 49 48 46 44 43 43 42 41 39 38 37 36 36 35 33 32 30 27 25 22 21 23 25 29 33 35 36 37 38 38 37 36 35 34 32 31 29 29 29 28
39 41 45 50 54 57 59 56 52 52 55 57 58 58 57 57 62 67 61 56 62 64 58 54 53 53 52 47 41 38 37 38 39 40 42 45 43 42 45 46 44 46 48 46 48 51 51 50 49 46 45 45 44 41 39 38 37 36 36 36 34 33 31 29 27 23 21 22 24 27 31 34 36 36 37 38 38 37 36 35 34 32 30 30 29 28
37 35 37 43 48 52 57 57 53 50 53 58 58 57 57 56 58 67 68 63 66 68 62 58 55 54 55 51 43 39 39 39 41 42 43 44 45 44 46 49 49 49 50 49 49 50 51 50 49 47 46 45 43 41 39 38 36 37 37 37 35 34 33 31 29 25 23 23 24 25 27 32 34 35 36 37 38 38 37 36 35 33 32 31 30 29
36 34 34 36 41 46 50 54 55 51 53 61 60 54 55 56 57 64 70 67 67 69 66 61 56 56 59 55 46 42 41 39 38 41 42 43 45 46 48 51 52 52 51 50 50 50 51 51 50 48 46 45 44 42 39 37 36 35 36 36 35 35 35 33 31 28 25 24 23 23 25 29 32 34 35 35 37 38 38 37 36 34 32 32 31 31
32 35 34 33 35 40 43 49 55 54 52 57 58 50 50 55 57 60 66 69 68 69 69 66 63 64 65 60 54 53 51 44 38 38 42 45 45 45 46 49 52 52 51 50 50 52 52 51 50 49 47 46 45 42 40 39 36 34 35 37 37 37 37 36 34 31 27 25 23 22 24 28 30 32 33 33 35 37 38 37 36 35 34 33 32 31
27 31 34 34 34 36 38 42 51 53 48 48 53 52 49 53 57 58 62 68 70 68 68 68 68 70 68 61 58 59 59 55 48 43 42 44 45 44 45 47 50 52 52 51 51 52 53 52 51 49 48 47 45 43 42 41 38 36 36 37 37 37 37 37 35 32 29 26 24 23 24 26 29 31 31 31 32 34 36 37 36 35 35 34 32 31
26 26 30 33 33 33 35 39 45 47 43 44 55 60 54 50 53 56 59 66 70 68 65 64 66 69 68 61 57 57 56 54 54 51 45 43 45 45 45 47 50 52 53 53 53 53 53 53 52 51 49 47 45 45 44 42 39 37 35 35 35 35 36 37 35 33 31 27 25 23 24 26 27 29 30 31 31 31 34 35 36 35 35 35 33 32
28 26 27 31 32 32 33 36 38 39 40 45 55 60 57 52 52 54 55 61 67 68 66 67 68 67 65 62 61 60 56 50 49 51 48 45 45 45 45 47 50 53 54 54 54 54 54 54 53 52 50 48 47 47 45 42 40 38 36 35 34 34 36 36 35 33 31 28 26 24 26 26 26 27 29 30 30 30 31 32 34 35 35 35 34 33
31 29 27 28 31 31 30 32 34 36 41 46 50 55 57 56 53 52 52 54 60 67 70 71 70 66 62 60 60 63 61 54 51 51 48 46 46 46 46 47 49 53 55 56 56 56 55 54 53 52 51 50 48 47 45 44 43 41 39 37 34 34 36 36 34 32 30 29 27 26 27 27 25 25 27 29 30 31 31 31 32 33 34 35 35 34
30 31 30 28 29 30 29 28 30 35 41 45 47 51 55 54 49 48 50 51 55 63 69 70 67 66 64 56 54 60 63 61 58 55 48 46 47 47 47 48 49 52 56 57 57 57 56 55 54 53 53 51 50 48 47 47 45 43 41 39 36 35 36 35 33 31 30 30 28 27 28 28 25 24 26 27 29 31 32 32 32 33 33 34 35 34
30 31 32 30 28 26 26 26 27 32 39 45 46 48 52 51 46 44 47 51 52 55 63 68 65 64 64 57 53 58 63 64 63 58 49 46 47 47 47 48 49 51 55 58 59 58 57 56 55 54 54 53 51 49 49 48 48 46 44 41 39 37 36 34 32 31 31 30 29 28 29 29 26 24 24 26 28 30 32 33 33 33 33 34 34 34
27 29 30 30 27 25 24 25 27 30 37 44 46 46 48 50 50 47 45 48 50 50 57 65 66 64 63 59 55 58 61 62 63 60 52 47 47 47 47 48 48 50 53 56 58 59 58 57 56 55 56 54 52 50 50 50 49 48 46 44 41 38 36 34 34 32 32 31 30 29 29 29 27 25 25 26 27 28 31 33 33 33 32 32 33 33
24 28 29 29 27 27 26 26 28 32 36 41 44 45 45 48 53 53 48 47 50 52 54 59 63 65 64 60 56 57 59 59 61 62 56 49 47 46 47 48 48 49 50 53 56 58 58 57 56 56 56 55 52 50 50 50 49 47 46 44 42 39 37 36 35 34 33 32 31 30 30 30 29 27 26 26 26 27 29 31 33 33 32 32 32 31
19 23 26 27 27 27 27 28 30 33 35 38 42 44 45 47 52 54 51 48 49 51 51 53 57 62 64 61 58 57 58 58 60 62 58 51 47 46 45 46 47 48 49 51 54 56 57 55 55 56 56 54 51 49 51 51 48 46 44 42 42 42 41 39 37 35 34 33 32 31 30 30 30 29 27 27 26 26 27 29 32 32 31 31 31 30
13 18 23 27 27 27 27 28 30 32 34 37 41 43 44 47 50 52 52 50 48 48 49 50 53 56 60 61 59 58 59 57 58 61 59 51 46 45 45 44 45 46 48 49 52 54 53 52 53 54 53 52 50 49 51 51 49 46 43 43 44 45 43 40 38 36 35 34 33 31 30 30 30 29 28 27 27 27 27 28 30 31 31 31 31 30
11 17 22 24 26 27 28 27 28 30 33 36 40 42 43 45 47 49 50 49 48 47 47 48 50 52 55 58 60 60 61 58 57 59 58 51 46 45 44 43 43 45 47 48 50 51 51 50 50 50 50 50 50 49 49 49 49 48 46 45 46 47 44 42 40 38 37 36 35 32 31 30 30 29 29 28 27 27 27 28 28 29 30 30 30 29
9 14 20 22 23 25 27 27 27 29 33 36 38 40 41 43 46 48 47 46 46 45 44 46 49 50 51 55 60 62 63 61 57 57 56 50 46 46 45 43 43 44 45 46 48 50 49 47 46 46 47 47 47 46 46 46 48 49 49 47 47 47 46 44 41 39 39 38 36 33 31 30 29 29 29 28 27 27 27 27 28 28 29 30 29 28
8 11 16 18 19 21 24 26 26 27 31 35 37 39 40 42 45 47 45 43 43 43 42 44 49 50 49 52 58 62 63 62 59 57 55 50 47 46 45 43 43 43 42 43 45 45 43 41 41 43 44 44 43 43 43 44 46 49 51 50 49 49 48 46 43 41 40 38 36 33 31 30 29 29 29 27 27 27 27 27 28 28 28 28 27 27
7 9 13 14 16 19 23 25 26 27 29 33 36 37 39 41 45 48 46 41 40 41 41 42 48 51 49 49 55 61 63 61 59 57 54 51 48 47 45 45 44 43 42 41 41 41 39 39 40 41 42 42 42 41 40 40 42 46 50 51 50 50 50 47 43 42 40 38 35 33 31 30 29 29 28 27 27 27 28 28 28 27 27 27 27 27
7 9 12 14 16 19 22 23 24 26 27 30 33 36 38 41 45 48 47 42 40 41 40 41 46 50 50 49 52 57 60 59 58 57 55 52 50 48 46 46 45 44 42 42 41 40 39 38 38 39 39 40 41 41 41 40 40 42 47 50 51 51 51 48 44 41 40 37 35 33 31 30 30 29 28 28 29 29 29 29 29 28 28 29 29 28
6 8 12 15 17 19 21 22 23 24 25 26 29 33 37 41 45 49 48 43 40 40 39 40 45 49 49 49 51 54 56 56 56 56 55 53 51 49 48 48 46 45 44 42 41 40 39 38 38 38 38 39 39 41 43 43 43 44 47 50 52 52 51 48 43 40 38 36 34 33 31 30 30 29 29 29 29 29 29 29 29 30 29 29 28 28
7 7 10 14 17 19 21 21 21 22 23 23 26 30 34 40 46 51 49 43 39 39 38 38 44 49 49 49 51 52 52 52 54 56 55 53 51 50 50 49 48 46 45 43 42 40 39 39 39 38 37 38 39 41 44 45 45 47 48 50 52 53 52 47 42 38 36 35 33 33 33 32 31 29 29 29 29 29 30 31 31 31 30 30 29 30
Wind_Direction
240 238 237 236 236 237 236 234 229 228 232 231 230 229 229 232 235 239 237 234 240 236 230 234 233 235 242 241 238 242 243 239 234 224 217 226 224 214 218 228 230 223 215 211 205 201 201 207 217 219 214 211 214 214 204 194 190 187 185 185 185 182 180 178 178 182 187 188 187 186 186 184 182 182 183 180 175 168 162 159 154 146 142 140 139 140
242 241 240 237 236 235 233 232 229 228 231 230 229 229 228 230 230 236 239 230 231 236 229 231 235 236 243 244 238 238 242 242 238 231 225 228 227 218 219 227 229 224 220 213 202 196 194 199 212 221 219 213 213 214 208 198 192 189 187 185 186 185 185 183 182 184 188 190 190 188 187 183 182 183 182 179 173 166 163 158 150 144 140 139 139 139
243 242 241 239 235 234 233 232 231 230 231 229 227 227 226 228 227 230 237 231 227 237 235 233 237 236 241 247 244 240 243 245 243 238 233 233 231 221 219 226 229 226 224 217 204 194 190 192 202 210 214 215 213 213 211 204 195 191 188 187 187 187 187 187 187 189 191 193 192 189 187 183 181 182 181 177 171 166 163 157 150 144 142 142 141 140
243 243 240 238 235 234 233 232 232 231 232 230 227 226 225 226 227 228 236 237 234 240 240 235 238 237 236 241 244 244 243 241 240 240 240 239 237 230 223 227 233 226 221 222 212 199 195 195 199 203 206 210 212 213 212 208 200 194 191 189 190 190 188 189 191 194 195 193 192 190 186 182 181 182 182 176 170 168 163 157 151 146 146 147 146 144
242 241 238 236 233 232 232 232 232 231 232 233 229 226 224 225 227 226 231 237 236 238 239 236 238 239 236 235 240 244 243 243 246 243 238 237 237 237 233 231 233 227 221 228 222 207 200 197 200 205 207 207 208 211 212 209 204 198 195 193 193 192 190 191 195 196 196 193 190 188 184 181 182 183 184 180 173 169 165 158 153 150 150 152 152 150
240 239 237 236 233 231 231 232 231 230 231 233 231 228 225 225 227 225 225 232 234 234 235 235 236 239 238 236 236 240 239 242 247 244 239 242 239 238 238 234 232 228 225 232 229 215 203 201 206 210 213 212 208 209 211 210 206 201 200 198 195 194 193 194 197 196 196 194 188 186 186 183 184 186 186 182 174 167 162 157 154 152 152 154 156 154
240 238 237 236 235 232 232 232 231 229 230 232 231 228 226 224 226 227 226 230 235 235 235 236 236 236 238 238 236 238 240 239 243 243 241 245 243 237 235 235 232 229 229 233 232 223 211 207 213 217 218 219 214 212 211 209 208 205 203 202 199 196 196 197 198 197 195 193 188 187 189 187 187 188 185 179 169 161 158 156 155 155 154 155 157 156
239 238 238 237 235 234 232 232 232 230 229 231 231 229 227 226 225 227 227 229 234 236 235 236 238 235 234 237 237 237 238 238 238 238 236 240 243 237 231 231 229 228 231 233 231 228 221 213 214 219 222 223 221 218 213 209 208 208 206 206 204 200 199 200 199 197 196 193 190 191 191 191 192 190 184 174 166 160 157 157 156 156 157 156 156 156
238 236 236 237 236 234 233 232 231 231 230 229 231 230 228 226 226 226 227 229 233 236 234 233 236 236 232 232 235 235 233 233 234 233 230 234 240 239 233 231 228 226 227 231 230 228 227 227 225 226 227 228 227 223 218 213 209 208 208 208 207 204 202 201 201 199 197 194 192 194 194 195 196 191 182 173 166 162 159 159 158 157 158 157 157 155
238 235 232 234 235 232 231 232 230 230 231 228 228 231 230 228 228 228 227 228 232 236 234 232 232 235 234 230 230 232 230 231 233 233 231 232 238 241 239 234 230 226 225 229 229 225 225 229 232 236 239 238 234 229 222 218 213 208 207 209 209 207 205 203 203 202 200 197 195 195 197 198 198 192 183 176 171 167 164 162 162 160 159 159 159 157
236 236 232 231 235 232 228 229 228 228 230 228 226 230 232 230 228 230 230 228 233 235 233 233 231 233 235 230 227 230 231 232 234 234 234 233 235 239 239 236 235 232 229 229 228 226 225 225 229 239 247 249 246 238 229 222 218 212 208 209 210 209 207 204 204 204 202 200 197 198 200 201 199 194 186 181 177 172 169 167 166 163 160 160 160 159
235 236 235 231 233 233 228 226 226 227 228 227 226 229 232 231 227 229 230 228 232 234 232 234 234 233 235 232 227 228 229 232 232 232 236 236 233 236 238 236 237 236 234 231 227 225 223 221 227 238 247 253 255 251 240 228 222 218 211 210 210 210 210 207 205 205 204 202 201 202 203 202 200 196 191 187 183 177 173 171 169 166 165 164 163 163
235 234 234 231 230 231 229 226 225 227 229 227 225 227 230 231 227 227 230 230 231 233 233 235 237 237 238 235 231 228 227 231 231 226 231 233 230 233 236 234 234 234 230 228 227 227 225 221 227 237 243 248 252 253 245 233 224 221 217 213 212 210 210 210 208 206 205 203 204 205 206 205 201 198 195 192 187 182 178 174 173 172 172 172 170 171
238 237 236 233 230 229 228 226 225 227 229 228 225 226 228 230 229 227 229 231 233 234 235 237 238 240 240 237 235 233 229 230 230 224 225 230 229 231 234 233 232 232 230 227 226 228 228 224 226 234 239 240 244 247 244 237 227 220 219 217 215 212 211 211 210 208 206 204 205 207 207 206 204 200 197 195 192 188 183 179 179 178 179 180 180 180
238 240 242 237 234 232 229 227 226 226 228 230 227 226 227 228 228 228 230 233 234 236 238 238 238 240 243 240 237 237 234 230 230 228 225 228 229 230 232 232 232 234 235 230 226 228 230 230 230 231 235 237 238 242 242 240 233 222 218 218 218 216 213 212 212 210 208 207 206 209 209 207 205 203 200 197 196 194 189 185 184 184 185 187 187 186
235 228 235 236 233 232 230 226 225 225 226 229 229 226 226 228 228 226 229 234 236 238 240 241 240 239 242 243 238 237 235 229 228 231 230 228 230 231 231 231 232 233 236 233 228 228 229 231 232 229 229 235 237 240 242 243 239 228 219 216 217 218 216 213 212 211 210 210 210 210 210 208 206 205 203 200 198 197 195 192 190 189 191 192 190 191
241 231 229 233 231 230 231 228 225 223 222 226 230 228 225 227 229 227 228 230 232 236 237 239 243 241 241 244 241 237 236 231 227 231 232 229 232 235 234 232 232 231 234 234 230 229 229 230 232 230 227 233 238 240 244 244 242 234 223 217 215 216 216 215 213 212 211 212 213 212 212 210 207 205 205 203 201 201 199 197 195 195 197 195 192 195
244 238 234 236 234 232 233 232 229 224 219 219 227 232 229 228 228 226 227 227 227 232 233 231 237 241 243 244 242 238 235 233 230 231 230 226 228 235 237 235 235 234 236 236 229 226 229 228 229 231 228 230 236 239 241 241 241 237 228 222 218 215 215 215 215 213 212 212 214 215 214 212 210 207 205 205 204 203 202 201 200 199 200 198 196 198
246 243 241 240 239 236 235 236 234 226 220 217 217 225 232 232 230 225 224 223 225 230 233 230 228 234 241 246 245 242 237 233 233 232 228 224 225 231 236 236 235 236 237 237 231 225 227 226 223 226 229 228 233 237 238 239 239 238 233 227 223 219 215 215 215 213 212 212 214 215 216 214 211 209 207 206 206 206 206 205 204 204 203 201 199 198
246 244 242 240 239 238 237 238 237 230 223 218 212 209 218 230 231 229 227 224 224 227 231 234 233 233 237 240 244 247 242 233 231 232 229 224 224 228 233 234 234 235 235 237 234 227 228 230 223 221 226 228 231 237 239 239 239 238 236 230 226 223 220 218 216 214 213 213 214 215 217 216 213 210 210 209 209 208 208 207 206 206 207 205 202 200
244 243 241 238 237 237 236 237 237 233 227 221 215 209 207 216 221 226 229 227 224 225 224 228 236 240 244 245 245 249 247 239 231 230 230 226 224 226 230 232 233 235 235 237 236 229 226 231 228 223 225 226 228 235 238 238 238 237 236 234 231 228 226 224 221 219 217 216 215 215 217 217 215 212 212 212 212 211 210 210 208 207 209 208 204 202
238 239 239 237 236 235 234 235 236 234 228 220 218 215 211 212 215 217 225 226 225 226 224 223 227 236 245 248 247 248 248 245 236 228 230 229 223 223 228 230 232 233 234 235 237 232 225 228 232 230 229 228 229 234 239 241 240 240 238 237 236 233 230 228 226 224 222 221 219 218 217 217 215 214 213 213 214 213 213 212 210 209 210 210 206 204
238 238 240 239 238 236 233 230 230 233 226 212 212 217 213 214 219 219 219 223 226 227 226 225 222 221 227 229 236 243 241 240 236 227 227 230 223 221 226 229 230 231 232 233 234 233 226 224 229 230 229 232 232 233 238 241 242 243 242 240 239 236 234 232 229 226 226 225 223 222 221 219 216 215 215 216 216 215 215 214 212 210 210 210 208 206
239 238 239 238 239 238 235 231 227 228 227 215 209 210 209 210 217 220 216 218 225 227 227 228 223 213 230 241 241 238 233 235 235 229 226 229 224 220 224 229 229 229 230 229 231 233 228 223 225 227 227 231 234 233 236 240 241 243 242 241 240 238 236 234 230 228 227 227 226 225 224 222 219 217 216 217 218 218 217 216 214 212 211 211 209 207
238 237 236 234 234 233 234 236 232 230 232 226 216 211 209 208 211 216 216 213 219 220 219 227 226 213 221 241 244 237 230 227 228 227 225 228 226 221 223 228 229 228 228 227 227 230 230 226 225 225 226 231 235 235 236 239 241 242 243 243 242 241 239 237 234 230 228 228 228 227 227 225 223 220 218 218 219 219 220 218 217 215 214 214 212 210
238 236 235 232 231 229 228 232 232 229 231 227 219 213 211 210 208 211 214 212 213 213 208 212 224 220 219 232 240 241 237 226 219 223 224 224 223 219 218 222 223 224 225 225 226 227 230 231 227 225 227 230 234 236 236 238 241 242 243 243 242 241 240 239 238 234 231 230 229 229 229 227 225 222 220 219 219 220 221 221 219 219 218 217 215 213
238 235 234 232 230 227 225 228 228 226 226 226 221 215 210 211 211 208 213 216 215 213 208 203 205 208 211 224 238 242 240 226 212 218 222 221 220 218 218 220 221 219 218 219 220 220 224 229 228 225 226 228 231 233 234 236 239 241 241 242 241 240 240 240 240 239 236 234 232 231 230 229 227 225 222 221 220 221 222 222 221 221 222 221 220 218
239 236 233 231 230 227 225 228 229 226 224 224 222 216 209 209 208 204 208 215 215 212 208 203 200 197 193 207 230 241 240 230 219 219 223 222 221 219 220 223 224 223 220 217 217 217 219 225 226 224 225 227 229 231 233 233 236 238 239 240 241 240 239 239 241 241 240 239 236 234 232 231 229 226 224 222 222 222 223 223 223 223 224 224 224 223
238 236 232 230 229 227 225 226 227 226 223 221 220 217 213 210 207 204 206 209 210 211 208 203 202 200 193 197 212 223 229 229 225 223 223 223 220 216 216 219 220 221 220 217 216 217 220 223 225 224 224 227 229 230 231 232 233 236 237 238 240 241 240 238 238 239 240 241 240 237 234 233 231 228 226 224 223 223 224 225 224 224 225 226 227 226
236 234 232 231 228 226 225 223 223 224 223 221 219 218 218 215 209 206 206 207 208 212 211 205 204 203 199 200 206 208 214 221 222 220 220 220 218 214 212 213 215 216 218 217 215 214 216 219 220 220 221 225 227 227 228 230 232 234 238 239 241 243 244 242 240 239 241 243 242 239 235 234 233 231 228 227 225 225 226 226 227 226 226 227 229 229
235 231 230 230 229 227 225 223 222 224 222 221 221 219 218 218 213 208 207 206 207 210 210 207 206 206 203 201 201 203 208 214 215 214 214 216 217 214 209 209 212 214 216 217 216 215 215 216 217 216 218 222 225 225 226 228 229 232 235 238 241 244 246 247 244 242 243 244 244 241 237 235 234 234 231 229 227 226 227 228 229 228 228 229 231 232
234 230 227 228 228 228 226 223 222 224 223 222 221 218 217 217 214 210 209 207 208 210 210 208 209 209 206 202 198 198 204 210 212 212 211 213 215 214 209 207 210 212 212 214 216 216 216 216 215 215 217 222 226 226 225 226 227 229 232 235 239 242 246 248 247 244 243 244 245 245 242 237 235 235 234 231 229 228 229 230 230 230 230 230 232 233
233 229 226 227 228 226 225 224 222 221 222 222 219 216 216 216 214 212 211 209 209 209 209 209 209 210 208 203 198 198 202 208 211 210 209 210 213 214 211 209 211 213 213 214 216 217 216 215 215 215 216 221 226 228 227 226 226 227 230 234 237 240 244 246 246 245 244 244 245 246 245 242 237 236 236 234 231 230 230 231 232 233 233 233 234 234
232 229 225 225 227 225 222 223 223 221 222 222 218 216 217 216 216 215 213 211 209 208 209 209 209 209 208 204 203 207 210 212 211 207 206 209 213 214 213 211 212 213 214 215 215 216 216 216 216 216 217 221 225 227 228 228 225 224 226 230 232 235 239 242 244 245 244 243 244 245 245 244 241 239 238 237 234 232 232 232 233 235 236 236 236 236
235 230 226 224 225 225 222 222 224 224 224 221 217 216 217 215 215 217 217 215 211 210 212 213 213 214 212 206 206 212 216 217 218 216 209 208 211 214 213 213 212 213 214 215 215 215 215 216 217 218 219 222 224 227 229 230 227 224 224 228 230 231 235 238 241 244 244 241 242 244 245 245 243 242 241 240 238 235 234 234 234 236 238 239 239 239
236 233 229 225 224 223 222 223 225 225 223 218 215 215 214 214 215 216 219 219 214 212 215 216 217 219 218 211 207 210 215 217 221 224 217 209 209 212 213 213 212 213 214 215 216 216 216 216 218 219 221 223 225 227 229 231 231 228 226 227 230 231 233 235 238 240 242 241 241 243 246 245 243 242 242 243 241 239 237 236 236 238 240 242 242 241
231 230 228 226 223 220 220 222 225 225 221 218 217 215 213 215 216 216 219 220 216 213 216 217 218 219 220 217 211 210 213 214 217 221 219 213 211 211 213 214 213 214 215 216 216 217 217 217 218 220 222 223 225 228 230 231 232 232 229 227 229 230 232 234 235 237 240 242 242 244 247 247 244 242 242 243 243 242 241 239 238 239 241 242 243 243
228 226 225 224 221 218 217 219 221 221 219 216 216 214 213 216 218 217 219 221 218 215 215 217 218 218 219 219 214 212 213 214 215 217 215 214 214 212 213 215 215 214 216 217 218 218 218 218 219 221 224 224 224 227 229 230 232 234 234 232 231 231 232 233 234 233 237 241 243 245 249 249 246 243 242 243 244 244 243 242 241 240 241 242 243 243
226 223 222 221 219 216 215 216 215 218 217 213 212 212 212 215 217 218 221 223 221 218 216 217 217 217 217 216 212 210 212 213 215 216 212 211 214 213 212 215 216 215 216 218 219 219 220 220 220 222 225 226 226 226 228 230 231 233 236 237 235 232 231 232 232 231 234 240 243 246 250 251 249 244 242 242 243 244 244 243 242 241 241 241 242 242
221 220 220 220 219 216 215 213 212 215 214 209 209 211 210 209 209 212 219 223 221 218 217 219 219 216 215 213 208 208 211 211 213 216 212 209 213 213 213 215 216 217 217 218 219 221 221 222 222 224 226 227 226 227 229 231 233 233 235 239 238 233 231 231 230 229 232 237 240 244 249 252 251 248 244 243 242 242 242 242 242 242 241 242 242 242
216 218 218 218 217 215 215 214 211 213 212 208 209 211 209 207 206 207 212 217 218 218 218 219 220 218 216 212 206 207 211 209 210 214 213 210 211 213 213 214 216 217 218 218 219 221 222 223 223 225 227 228 227 227 229 232 234 234 235 237 238 235 232 230 228 227 230 234 239 243 248 252 254 251 247 244 242 241 241 240 241 241 242 242 243 243
216 216 216 215 215 215 215 214 212 213 211 208 208 210 209 208 208 209 210 212 215 217 218 218 219 219 218 213 207 207 211 209 208 212 214 211 211 212 213 214 215 216 217 218 220 221 222 223 225 226 228 229 228 228 229 231 233 233 233 234 235 235 234 230 227 226 229 234 239 244 249 253 254 252 248 246 245 243 241 239 239 240 241 243 244 244
213 212 214 215 216 217 218 217 215 214 212 207 206 208 210 210 210 211 213 214 215 215 216 216 217 218 219 215 208 208 210 209 208 212 213 212 211 212 213 214 214 215 216 217 219 221 222 223 225 227 229 230 229 228 229 231 232 232 232 229 230 233 234 230 228 228 231 235 241 245 249 252 253 251 248 247 247 246 244 240 239 239 240 242 243 243
207 206 212 216 216 217 219 221 219 215 211 206 205 207 210 211 212 212 214 217 217 215 214 216 216 217 218 216 210 208 210 209 208 211 212 211 209 210 212 214 214 213 214 216 218 221 223 224 226 228 230 232 231 230 230 231 231 231 229 225 226 231 232 230 228 229 231 236 240 244 248 251 251 249 247 247 247 246 244 242 239 239 240 241 241 241
213 210 213 217 219 218 219 222 220 213 208 205 206 207 209 211 213 213 213 216 218 217 217 217 216 217 218 216 211 208 209 209 208 209 210 209 207 209 211 213 212 212 213 215 217 221 223 224 227 229 230 232 232 231 231 230 229 229 227 224 225 229 231 230 228 228 230 235 240 244 247 248 248 246 246 245 245 244 243 241 240 238 238 239 240 240
234 219 214 216 220 221 219 219 218 211 206 206 207 208 210 212 213 212 211 213 216 216 216 217 216 216 217 215 210 207 209 210 209 208 208 207 206 207 210 211 211 212 212 214 216 219 221 223 224 226 228 229 230 230 228 227 226 227 226 225 225 228 229 229 229 228 230 235 239 242 244 245 244 244 244 244 242 241 240 239 237 236 236 236 237 237
255 231 220 218 222 225 224 220 216 210 208 209 209 209 210 212 213 211 208 212 215 212 212 216 216 214 215 214 209 207 209 210 209 207 207 206 205 206 208 210 211 211 212 213 215 216 216 215 215 217 221 223 225 227 227 224 222 223 224 224 225 227 228 229 229 229 231 235 238 239 240 241 241 242 242 242 240 238 237 236 235 234 234 235 234 233
257 244 237 233 232 232 230 224 219 215 212 211 210 211 212 213 213 210 206 208 212 209 207 212 215 213 214 213 209 208 210 211 209 207 206 204 204 204 206 208 209 209 210 212 213 210 207 206 208 212 216 219 221 222 224 224 222 221 223 224 224 224 227 228 228 229 232 235 236 235 236 238 239 239 239 237 236 234 233 233 233 232 231 231 231 230
247 245 243 242 239 236 234 231 229 226 221 214 209 210 213 213 212 209 207 208 209 206 205 209 211 211 212 212 209 209 211 210 208 207 205 204 203 203 203 205 207 208 209 211 210 206 204 206 209 211 214 217 218 218 218 220 220 221 221 222 221 223 226 227 227 230 233 234 231 231 233 235 236 236 235 234 233 233 232 231 231 231 229 229 229 229
264 251 244 241 240 239 237 236 235 234 231 223 213 210 213 214 211 207 206 207 206 203 204 208 208 208 211 211 210 210 211 209 207 206 205 203 203 202 202 203 205 206 209 212 210 207 206 208 211 212 214 217 218 217 216 216 217 218 219 218 218 221 225 226 228 230 231 229 227 229 232 234 234 234 234 233 233 232 231 231 231 230 230 230 230 230
305 286 260 244 238 239 240 239 238 239 237 230 220 213 212 213 210 207 206 207 205 201 202 206 207 206 208 210 210 212 211 208 205 205 204 203 202 201 201 203 205 206 208 212 213 210 207 208 211 213 214 217 218 218 217 215 215 216 217 215 215 219 223 225 227 228 227 226 227 230 232 234 235 235 234 234 233 232 230 229 229 229 229 228 227 226